Vorticity
-1 8 6 15 18 22 21 9 0 6 10 9 8 8 9 9 7 7 7 7 6 5 7 6 5 5 6 5 6 7 6 6 9 8 8 8 7 4 11 8 6 11 11 -2 2 7 9
3 11 -10 -4 0 6 23 12 19 32 14 4 -4 -1 5 7 9 7 6 7 8 8 7 10 9 9 9 6 9 10 10 9 9 10 9 8 4 4 17 15 9 9 13 5 6 0 2
7 -5 -7 7 6 20 7 32 7 14 9 29 23 11 19 32 5 5 0 5 6 9 8 9 12 6 6 9 6 5 4 8 8 9 11 7 6 12 10 11 12 9 9 13 5 0 4
8 10 2 2 -1 -12 -11 -22 17 1 -3 7 -8 6 2 6 6 11 22 16 8 6 4 -1 6 8 -1 7 4 7 3 4 11 10 11 9 10 7 8 3 6 4 3 1 12 3 -0
2 1 10 7 3 4 7 1 1 -13 4 -4 20 0 8 16 12 9 10 15 13 18 23 13 5 5 -2 -10 1 6 9 15 12 14 12 9 9 3 3 8 3 3 2 7 8 6 3
4 16 6 2 15 0 1 1 1 7 -3 14 6 22 7 13 21 -9 2 -14 8 8 9 16 17 23 16 21 19 18 17 12 12 14 11 9 3 1 4 -1 2 11 13 10 7 5 6
10 6 3 9 13 11 8 2 6 1 3 14 -1 -27 16 -28 -4 3 15 14 4 1 -1 1 -2 6 10 9 11 10 5 5 9 2 3 2 -7 -3 4 3 7 8 8 5 8 -0 7
8 5 10 14 11 24 5 10 9 -21 -0 4 17 -8 -13 18 19 -16 2 4 -5 5 3 6 2 0 6 9 5 10 16 9 6 6 11 14 12 24 17 13 13 13 10 8 8 9 7
8 9 10 7 7 9 -0 14 9 9 14 -2 2 18 9 13 -1 8 -8 21 4 13 6 3 9 6 7 2 6 9 9 15 15 14 8 14 11 9 8 7 9 11 10 10 10 12 -1
15 13 9 9 7 5 12 13 10 8 15 7 6 -2 -6 -3 14 12 23 19 -7 7 -0 5 3 9 4 12 3 4 4 3 3 14 13 4 5 5 10 9 8 8 7 11 11 8 4
17 17 18 20 20 16 15 15 10 12 7 16 12 14 6 1 9 31 -1 15 5 42 19 19 1 14 6 2 6 6 3 12 13 7 -2 0 6 10 5 3 5 7 8 9 6 4 7
12 10 12 14 15 17 16 17 17 16 16 14 13 9 13 13 13 13 9 -2 -20 -20 6 6 24 9 17 18 17 15 3 8 1 8 6 7 -6 -2 7 6 4 4 7 6 3 4 6
13 12 11 10 10 5 10 8 10 12 15 15 15 13 13 10 7 11 19 11 20 14 -11 7 -11 7 2 17 11 16 21 20 15 16 10 9 4 10 7 5 6 7 5 6 5 7 2
11 9 11 11 12 16 16 16 13 13 12 12 12 12 12 11 5 14 21 32 15 27 16 -43 -12 17 -5 -15 -3 -6 -12 12 9 18 24 8 8 11 10 6 6 4 13 9 4 7 5
9 8 9 11 9 11 11 12 13 14 14 15 13 14 17 16 14 20 35 19 19 17 16 10 2 20 36 -9 -12 -27 8 5 -7 -14 6 6 18 -6 9 10 9 9 7 10 18 11 6
9 10 9 12 14 13 13 15 14 14 15 14 13 10 8 12 23 25 8 0 15 26 23 31 39 15 36 15 18 10 10 2 22 20 -6 9 27 -3 9 13 12 8 6 6 5 2 4
8 8 11 12 6 11 17 15 14 10 10 11 12 16 11 19 15 20 6 3 23 16 19 35 6 6 5 31 35 28 26 40 11 16 31 5 9 4 10 4 15 17 7 6 15 2 6
10 7 8 5 11 10 13 14 16 16 16 17 17 14 14 13 14 18 1 8 24 25 21 -2 -1 -1 25 24 19 27 8 -3 9 -8 2 56 23 -13 20 15 14 15 12 15 13 11 9
4 9 5 5 7 7 12 15 16 14 14 14 12 11 13 10 8 22 -4 -4 10 24 0 -7 -4 11 34 14 13 19 6 12 0 14 -7 5 -17 8 11 6 1 6 6 10 12 13 -5
7 7 10 7 6 9 10 12 11 12 9 8 11 9 11 13 20 20 12 1 5 3 -3 13 11 24 14 -3 28 8 1 20 12 3 -5 23 4 9 22 29 27 17 13 18 19 10 12
7 3 9 4 3 7 13 12 9 13 9 7 9 11 10 13 20 28 25 6 27 28 9 4 7 26 31 -32 30 0 15 7 10 42 15 22 31 39 15 12 11 -1 8 10 3 21 19
-2 9 9 11 13 15 16 8 8 11 10 8 9 12 15 9 10 17 51 -34 2 28 2 19 1 5 4 11 37 16 44 67 -0 -14 37 40 5 40 6 15 14 6 3 -23 6 10 15
16 14 12 14 14 17 12 9 8 11 11 9 9 7 12 18 4 7 31 49 -37 -19 13 20 6 6 1 2 6 15 20 4 24 13 4 -6 25 -16 33 12 0 9 4 17 11 7 -5
13 13 13 12 13 14 10 9 11 10 9 10 8 8 12 20 10 4 32 34 16 25 9 4 17 6 17 0 16 12 17 21 16 24 5 -9 -16 -21 -1 -25 5 15 10 5 -1 -5 -17
11 10 10 10 13 12 10 10 10 11 12 9 10 10 12 24 17 3 36 -26 42 28 10 11 4 12 22 19 32 5 7 5 6 6 21 -0 2 9 15 29 30 32 -11 22 41 45 36
15 12 12 10 9 9 11 10 13 10 13 10 11 7 9 19 13 18 29 10 36 2 19 4 15 11 -17 9 5 10 11 12 13 5 12 15 8 -1 12 10 9 43 7 3 8 8 1
13 11 14 15 16 14 12 13 12 9 7 6 4 18 22 21 42 37 27 41 15 5 -13 8 5 27 5 5 -14 -3 6 18 13 14 33 17 25 31 36 25 24 12 18 8 12 13 6
9 0 -6 -9 18 4 9 5 10 16 27 31 38 22 26 53 40 -15 35 3 12 21 21 16 9 8 -7 5 29 13 18 6 3 21 28 2 6 9 9 13 23 21 19 -5 4 6 5
6 -1 5 16 14 25 56 49 32 22 9 5 19 34 55 21 -26 33 3 40 21 11 13 5 4 2 12 4 6 7 3 7 12 -14 2 13 8 12 21 -8 -4 -6 20 21 27 24 31
Height
5729 5733 5736 5739 5742 5746 5749 5754 5758 5760 5763 5766 5768 5771 5773 5776 5780 5782 5785 5789 5791 5794 5796 5799 5801 5804 5806 5811 5812 5813 5815 5816 5817 5818 5819 5820 5821 5822 5822 5823 5823 5823 5826 5823 5826 5831 5830
5718 5721 5725 5728 5731 5734 5738 5741 5745 5747 5748 5751 5754 5759 5762 5765 5768 5771 5773 5776 5778 5782 5785 5787 5791 5794 5798 5801 5803 5805 5805 5806 5807 5809 5811 5812 5813 5813 5816 5816 5817 5818 5819 5818 5818 5822 5823
5704 5709 5712 5716 5719 5723 5727 5730 5734 5736 5736 5739 5741 5743 5747 5751 5755 5758 5760 5763 5767 5770 5773 5776 5779 5784 5790 5790 5792 5796 5797 5797 5799 5801 5802 5802 5802 5806 5807 5809 5808 5811 5812 5813 5812 5815 5814
5691 5695 5697 5702 5706 5710 5713 5715 5720 5723 5725 5728 5731 5731 5735 5738 5741 5745 5747 5750 5754 5757 5761 5765 5769 5772 5779 5779 5782 5784 5787 5790 5790 5791 5793 5794 5795 5798 5798 5798 5801 5803 5804 5806 5810 5804 5802
5676 5680 5683 5689 5692 5695 5699 5700 5705 5710 5714 5717 5720 5721 5722 5726 5729 5733 5737 5740 5742 5746 5749 5754 5757 5761 5769 5772 5771 5774 5777 5779 5780 5783 5783 5784 5788 5789 5789 5791 5793 5795 5797 5797 5798 5795 5792
5661 5665 5669 5674 5677 5681 5685 5687 5689 5696 5700 5704 5707 5709 5711 5714 5718 5721 5726 5729 5731 5735 5738 5742 5746 5752 5756 5759 5763 5764 5766 5768 5770 5772 5774 5777 5778 5778 5780 5785 5786 5788 5787 5786 5785 5787 5785
5646 5651 5655 5659 5663 5666 5670 5674 5676 5681 5685 5689 5693 5695 5698 5699 5705 5709 5713 5716 5720 5724 5728 5734 5737 5742 5744 5747 5752 5756 5755 5756 5759 5762 5765 5767 5766 5770 5778 5775 5775 5774 5775 5775 5777 5776 5773
5628 5633 5639 5644 5648 5651 5652 5655 5662 5665 5669 5674 5677 5680 5682 5685 5692 5696 5699 5700 5704 5709 5715 5721 5728 5732 5737 5735 5741 5743 5745 5747 5748 5750 5752 5754 5755 5766 5763 5763 5763 5764 5765 5766 5768 5769 5769
5609 5615 5620 5625 5631 5634 5637 5641 5647 5651 5657 5660 5662 5666 5666 5671 5677 5682 5686 5686 5688 5693 5699 5713 5713 5723 5726 5725 5726 5734 5733 5736 5738 5739 5742 5746 5752 5750 5752 5753 5754 5755 5756 5760 5761 5763 5759
5592 5597 5603 5608 5612 5616 5621 5625 5629 5635 5639 5643 5646 5649 5652 5656 5665 5667 5673 5668 5669 5680 5683 5699 5701 5709 5713 5712 5714 5719 5724 5727 5728 5730 5732 5733 5742 5741 5742 5744 5746 5745 5749 5752 5751 5750 5751
5574 5580 5585 5591 5596 5600 5604 5609 5612 5618 5620 5622 5629 5632 5637 5639 5648 5654 5656 5655 5653 5666 5666 5680 5683 5693 5696 5699 5706 5705 5709 5711 5718 5719 5722 5727 5730 5730 5731 5736 5737 5739 5737 5739 5739 5739 5741
5559 5564 5569 5574 5579 5584 5589 5593 5596 5600 5605 5606 5610 5614 5618 5625 5632 5635 5639 5639 5638 5649 5654 5667 5671 5677 5677 5684 5689 5692 5694 5700 5704 5702 5708 5715 5718 5720 5723 5724 5726 5728 5727 5728 5727 5728 5727
5543 5549 5554 5559 5564 5568 5573 5577 5580 5584 5587 5592 5596 5599 5603 5611 5614 5614 5619 5621 5623 5630 5652 5659 5661 5661 5662 5668 5677 5678 5681 5685 5691 5692 5697 5703 5707 5708 5708 5711 5716 5718 5717 5716 5717 5716 5717
5529 5534 5539 5543 5548 5551 5555 5559 5564 5570 5574 5576 5581 5582 5588 5595 5597 5597 5598 5600 5601 5627 5637 5648 5643 5638 5643 5653 5662 5665 5665 5670 5675 5682 5683 5684 5691 5696 5700 5701 5703 5704 5706 5705 5704 5706 5710
5516 5521 5525 5528 5531 5535 5539 5543 5547 5553 5558 5562 5566 5567 5572 5582 5582 5581 5579 5576 5590 5614 5620 5624 5621 5615 5623 5636 5646 5647 5650 5659 5664 5668 5670 5674 5676 5683 5687 5688 5690 5693 5691 5698 5694 5696 5695
5503 5508 5512 5516 5519 5522 5525 5528 5532 5537 5541 5546 5551 5556 5563 5568 5567 5568 5565 5562 5579 5594 5603 5599 5596 5600 5609 5619 5620 5625 5634 5648 5650 5652 5656 5660 5660 5669 5676 5673 5678 5676 5681 5680 5678 5680 5681
5492 5496 5500 5503 5506 5509 5511 5514 5517 5521 5526 5530 5537 5544 5552 5552 5554 5550 5550 5552 5570 5586 5586 5581 5584 5587 5596 5606 5611 5612 5617 5628 5632 5637 5634 5646 5644 5655 5657 5659 5668 5666 5666 5665 5667 5669 5669
5481 5484 5488 5491 5494 5496 5498 5500 5504 5506 5511 5515 5524 5532 5538 5536 5538 5537 5540 5549 5562 5573 5569 5569 5572 5578 5587 5594 5595 5600 5607 5616 5612 5616 5618 5632 5631 5634 5642 5646 5650 5651 5655 5655 5651 5659 5659
5471 5474 5478 5481 5483 5485 5487 5489 5492 5494 5497 5503 5512 5517 5520 5520 5523 5529 5531 5537 5545 5556 5558 5557 5558 5567 5574 5580 5583 5591 5594 5601 5601 5606 5604 5611 5611 5617 5629 5630 5634 5632 5641 5642 5642 5644 5648
5460 5464 5467 5470 5472 5475 5477 5479 5480 5483 5485 5492 5498 5503 5506 5507 5513 5514 5518 5522 5530 5543 5544 5547 5549 5555 5562 5567 5572 5578 5582 5586 5593 5594 5595 5594 5600 5599 5611 5616 5622 5620 5626 5629 5628 5629 5637
5449 5453 5456 5458 5461 5463 5466 5468 5470 5472 5474 5480 5485 5490 5491 5496 5498 5499 5505 5512 5517 5524 5533 5538 5539 5549 5554 5557 5562 5565 5571 5577 5582 5582 5587 5588 5587 5584 5593 5599 5599 5605 5612 5616 5615 5616 5618
5438 5441 5444 5447 5450 5453 5455 5457 5459 5460 5461 5468 5472 5477 5477 5482 5483 5484 5489 5496 5503 5514 5522 5527 5533 5541 5544 5549 5554 5556 5561 5564 5570 5573 5576 5575 5579 5576 5580 5584 5585 5591 5599 5605 5605 5606 5608
5426 5429 5433 5436 5439 5441 5443 5446 5447 5448 5450 5456 5461 5462 5461 5469 5470 5472 5479 5487 5496 5505 5510 5517 5526 5531 5535 5543 5543 5548 5552 5557 5562 5565 5564 5565 5569 5568 5571 5573 5573 5576 5588 5589 5593 5595 5596
5415 5418 5421 5425 5427 5430 5432 5434 5435 5437 5438 5442 5447 5447 5447 5455 5458 5465 5468 5474 5484 5496 5504 5509 5514 5519 5532 5530 5535 5538 5542 5546 5547 5553 5555 5557 5559 5558 5564 5565 5562 5574 5583 5584 5582 5585 5585
5405 5407 5410 5412 5415 5417 5420 5421 5423 5425 5426 5429 5433 5434 5434 5439 5446 5454 5459 5465 5474 5483 5490 5498 5506 5514 5519 5522 5526 5530 5534 5538 5543 5547 5550 5550 5550 5550 5551 5556 5557 5566 5577 5572 5568 5567 5576
5395 5397 5399 5401 5404 5406 5408 5410 5411 5413 5414 5414 5420 5421 5421 5425 5438 5442 5447 5458 5465 5475 5483 5491 5498 5506 5510 5514 5517 5522 5528 5531 5534 5540 5543 5543 5543 5543 5547 5547 5548 5561 5560 5559 5554 5558 5564
5386 5388 5391 5393 5394 5395 5396 5397 5399 5400 5400 5400 5407 5407 5407 5412 5426 5432 5442 5454 5463 5469 5478 5484 5493 5493 5502 5506 5511 5516 5519 5521 5525 5529 5532 5532 5533 5535 5539 5536 5541 5551 5548 5547 5544 5555 5552
5376 5379 5381 5383 5384 5383 5382 5382 5383 5383 5384 5383 5393 5395 5398 5407 5416 5427 5435 5443 5456 5462 5470 5483 5485 5486 5494 5499 5503 5509 5511 5517 5520 5524 5525 5528 5529 5531 5531 5531 5534 5538 5539 5538 5536 5537 5541
5367 5369 5371 5373 5372 5369 5366 5365 5366 5368 5372 5373 5380 5387 5393 5400 5418 5426 5432 5441 5449 5459 5465 5472 5478 5483 5487 5490 5498 5503 5507 5511 5515 5519 5520 5525 5524 5523 5525 5526 5527 5529 5529 5527 5527 5528 5530